FENGYUN 1C DEB, 41003

Orbit data source: Space-Track

FENGYUN 1C DEB, 41003 is space debris in SSO originally from a launch on Mon, 10 May 1999 UTC launched from the Taiyaun Space Center, China (TSC). Fengyun 1C debris stems from the Chinese weather satellite Fengyun-1C, which was intentionally destroyed by a Chinese anti-satellite missile in 2007. This event dramatically increased the amount of space debris, with thousands of trackable fragments posing hazards to satellites and human spaceflight. The Fengyun 1C debris cloud has become a focal point in discussions about space sustainability and the need for international regulations to prevent the creation of new debris.

Loading next visibility...
Identifier
41003, 1999-025EXH
Orbit
SSO
Country
Flag of CNCN / PRC
Related business
Manufacturer
Unknown
Mission
Spacecraft
Bus & Motor
Unknown
Mass
Unknown
Launch date (UTC)
1999-05-10 (27 years ago)
Launch vehicle
Unknown
Launch site
Taiyaun Space Center, China (TSC)
Object type
Payload
Rocket body
Debris
Shape & HBR
Unknown shape, 0.1 m
Radar Cross Section
Small (<0.1 m²)

Expand to show TLE details & history
Last TLE update: 4 days ago

TLE from 4 days ago
0 FENGYUN 1C DEB
1 41003U 99025EXH 26059.06153281  .00035410  00000-0  47609-2 0  9992
2 41003  98.9664 351.4531 0069332  48.6402 312.0740 14.77469153535604
Epoch: 2026-02-28T01:28Z
TLE epoch observation values (Epoch: 2026-02-28T01:28:36.434Z)
Latitude
-0.00006°
Longitude
171.41225°
Altitude
607.896 km
Speed
7.573 km/s
True Right ascension
23h 25m 48s
True Declination
0° 00' 00"
Sunlit
Object was in daylight at epoch
Visualization orbit readout
Latitude
Unknown
Longitude
Unknown
Altitude
Unknown
Speed
Unknown
Apparent Right ascension
Unknown
Apparent Declination
Unknown
Sunlit
N/A
Visualization observer readout
Local Sidereal Time
20:02:45
Azimuth
Unknown
Elevation
Unknown
Doppler factor
Unknown
Orbital elements
Apogee altitude
683.038 km
Perigee altitude
585.8 km
Semi-major axis
7,012.556 km
Eccentricity
0.00693
Inclination
98.9664°
RAAN
351.4531°
Arg. of periapsis
48.6402°
True anomaly
311.48084°
Mean anomaly
312.074°
Eccentric anomaly
311.77776°
Mean motion
3.69597 °/min
Orbital period
97.4 mins
BSTAR
0.0047609
Loading maneuver chart data...
Computing Atmospheric mass density...

Documentation

Showing up to 5 results
|